Tracking 29799 objects as of 10-Oct-2024
HD Live streaming from Space Station
objects crossing your sky now

STARLINK-2533

Track STARLINK-2533 now!
10-day predictions
STARLINK-2533 is classified as:


NORAD ID: 48294
Int'l Code: 2021-036U
Perigee: 554.0 km
Apogee: 554.5 km
Inclination: 53.1 °
Period: 95.6 minutes
Semi major axis: 6925 km
RCS: Unknown
Launch date: April 29, 2021
Source: United States (US)
Launch site: AIR FORCE EASTERN TEST RANGE (AFETR)
Your satellite tracking list
Your tracking list is empty




NASA's NSSDC Master Catalog

Two Line Element Set (TLE):
1 48294U 21036U   24284.57329088  .00029835  00000-0  20118-2 0  9992
2 48294  53.0531 234.0684 0000366   4.7690 355.3302 15.06429352190675
Source of the keplerian elements: AFSPC